Погода в Меглецах

Россия / Новгородская область     58°25′31″N   34°33′32″E
темп.,
°C
ветер,
м/с
пор.,
м/с
влажн.,
%
обл.,
%
осадки,
мм/ч
давл.,
гПа
погр.,
м
27 января, ср
ср2700:000юв51196100 0.3 1000846
03:00−2юв4119395 0.8 999620
06:00−2вюв41195100 0.3 998671
09:00−2вюв3897100 0.7 996388
12:00−1юв259497 0.3 996407
15:00−1зюз369097 0.5 998550
18:00−2юз3797100 0.2 1000320
21:00−3ююз379793 0.4 1002244
28 января, чт
чт2800:00−4юз229694 0.1 100422
03:00−6ю229750 0.1 100536
06:00−6ююв229742 0.0 100622
09:00−6вюв229764 0.1 100674
12:00−4вюв2494100 0.0 1007207
15:00−3вюв2494100 0.1 1006276
18:00−4в2597100 0.0 1005199
21:00−4в2596100 0.3 1003254
29 января, пт
пт2900:00−4всв3697100 0.8 1001269
03:00−3всв3697100 1.5 1000210
06:00+2вюв41098100 0.7 996390
09:00+1вюв41098100 1.9 995500
12:00+1вюв51197100 0.1 993584
15:00+1вюв51198100 0.3 992706
18:000ююв3998100 0.9 991636
21:00−3юв4119193 1.0 991586
30 января, сб
сб3000:00−3вюв4119298 0.1 990675
03:00−3юв489198 0.1 989694
06:00−3вюв4995100 0.5 987616
09:00−4ююв3896100 1.0 987460
12:00−4ююв4791100 0.3 987526
15:00−3ю4893100 0.8 988659
18:00−5ю41094100 0.3 989584
21:00−5ю4993100 0.4 991523
31 января, вс
вс3100:00−6ю4993100 0.5 991562
03:00−7ююв389499 0.7 991393
06:00−9ююв3796100 0.1 991237
09:00−10юв249797 0.1 990121
12:00−7ююв239299 0.0 990245
15:00−6ююв129199 0.0 988255
18:00−8зюз129779 0.1 98921
21:00−7зюз389586 0.1 990405